Tracking 35237 objects as of 6-Sep-2026
HD Live streaming from Space Station
objects crossing your sky now

PETITSAT


PETITSAT is no longer on orbit
PETITSAT is classified as:


NORAD ID: 55130
Int'l Code: 1998-067UX
Launch date: November 20, 1998
Source: United States (US)
Launch site: TYURATAM MISSILE AND SPACE COMPLEX (TTMTR)
Decay date: 2023-04-10

Uplink (MHz):
Downlink (MHz): 2273.000
Beacon (MHz):
Mode: FM
Call sign:
Status: Inactive

Your satellite tracking list
Your tracking list is empty




NASA's NSSDC Master Catalog

Two Line Element Set (TLE):
1 55130U 98067UX  23099.72287827  .24288100  12514-4  79060-3 0  9997
2 55130  51.6220 294.9560 0009126 270.3599  89.9550 16.44074716 15899
Source of the keplerian elements: AFSPC